Regional Weather Roundup
Issued by NWS New Orleans/Baton Rouge, LA

Home | Current Version | Previous Version | Text Only | Print | Product List | Glossary On
Versions: 1 2 3 4 5 6 7 8 9 10 11 12 13 14 15 16 17 18 19 20 21 22 23 24 25 26 27
000
ASUS44 KLIX 271711
RWRLIX
NEW ORLEANS REGIONAL WEATHER ROUNDUP
NATIONAL WEATHER SERVICE NEW ORLEANS LA
1200 PM CDT WED JUL 27 2016

NOTE: "FAIR" INDICATES FEW OR NO CLOUDS BELOW 12,000 FEET WITH NO
      SIGNIFICANT WEATHER AND/OR OBSTRUCTIONS TO VISIBILITY.
      SKY/WX - SKY CONDITION AND SIGNIFICANT WEATHER.
      TMP - AIR TEMPERATURE.     DP    - DEWPOINT TEMPERATURE.
      RH  - RELATIVE HUMIDITY.   PRES  - PRESSURE.
      HI  - HEAT INDEX.          WCI   - WIND CHILL INDEX.

*  THESE STATIONS ARE NOT NWS OR FAA STATIONS AND ARE NOT UNDER
   NWS QUALITY CONTROL.

LAZ038-040-048-061>063-065>067-069-271800-
SOUTHEAST LOUISIANA

CITY           SKY/WX    TMP DP  RH WIND       PRES   REMARKS
N.O. AUDUBON   NOT AVBL
N.O. INTL ARPT CLOUDY    85  74  69 SW8       30.08R
N.O. LAKEFRONT PTSUNNY   83  72  69 W6        30.07R
N.O. DOWNTOWN*   N/A     85  74  69 S8        30.08R
RESERVE*       LGT RAIN  75  71  87 W14G33    30.11R
SLIDELL        CLOUDY    82  72  71 SW6       30.06S
BATON ROUGE    LGT RAIN  79  73  82 SW13      30.06R
BOOTHVILLE     MOSUNNY   87  77  72 S12       30.08R HX  99
BELLE CHASSE   PTSUNNY   83  75  77 SW3       30.07S
BOGALUSA*        N/A     85  71  63 W8        30.06S
GALLIANO*      PTSUNNY   87  76  71 CALM      30.08R HX  97
NEW ROADS*     PTSUNNY   80  74  80 SW12      30.05R
GONZALES*      RAIN      72  71  95 SW7       30.09S
HAMMOND*       RAIN      79  70  73 SW12G20   30.07R
HOUMA*         NOT AVBL
PORT FOURCHON* PTSUNNY   86  77  74 SW8G15    30.07S HX  97

$$

MSZ070-080>082-271800-
SOUTHERN MISSISSIPPI

CITY           SKY/WX    TMP DP  RH WIND       PRES   REMARKS
MCCOMB         CLOUDY    79  73  82 SW8       30.05R
GULFPORT       PTSUNNY   86  74  67 VRB6      30.06R
BILOXI         PTSUNNY   86  74  68 SW10      30.07R
PASCAGOULA     MOSUNNY   87  76  69 SW8       30.07S HX  97

$$

COASTAL OBSERVATIONS
LAKE AND NEARSHORE STATIONS

STATION/POSITION TIME  TEMP    WIND        PRES    WAVE
                       AIR SEA DIR/SP/G            HT/PER
                 (UTC) (F)     (DEG/KT/KT) (MB)    (FT/S)
PASCAGOULA       1600   84     260/  8/ 11 1017.9
WAVELAND YACHT   1600   83 87  270/  8/ 12 1018.1
GRAND ISLE       1600   86 86  210/  6/ 11 1018.3
SOUTHWEST PASS   1600          180/ 13/ 15   N/A
NEW CANAL        1600   81 85  280/  3/  6 1017.2
SHELL BEACH      1600   82 85  280/  8/ 10 1018.3

OFFSHORE STATIONS

STATION/POSITION TIME  TEMP    WIND        PRES    WAVE
                       AIR SEA DIR/SP/G            HT/PER
                 (UTC) (F)     (DEG/KT/KT) (MB)    (FT/S)
64 S DAUPHIN ISL 1600   85 86  170/ 12/ 14 1018.5

$$





USA.gov is the U.S. government's official web portal to all federal, state and local government web resources and services.